{"data":{"norad_id":59395,"intl_designator":"2024-063A","name":"YAOGAN-42 01","alt_names":[],"object_type":"PAYLOAD","status":"ACTIVE","operator":null,"country":"PRC","launch_date":"2024-04-02","launch_site_code":"XICLF","launch_vehicle":null,"mission":null,"orbit_class":"UNKNOWN","rcs_meters":null,"size_class":null,"mass_kg":null,"dimensions":null,"purposes":[],"wikipedia_slug":null,"has_3d_model":false,"image_url":null,"decayed_at":null,"tle_current":{"epoch":"2026-09-22T23:08:08.166624Z","epoch_age_seconds":50715,"freshness":"FRESH","line1":"1 59395U 24063A   26265.96398341  .00006160  00000+0  25856-3 0  9991","line2":"2 59395  34.9976 230.9254 0002824 147.8422 212.2465 15.22796821137769","mean_motion":15.22796821,"eccentricity":0.0002824,"inclination_deg":34.9976,"raan_deg":230.9254,"arg_perigee_deg":147.8422,"mean_anomaly_deg":212.2465,"bstar":0.00025856,"rev_number":13776,"period_min":94.562845163702,"perigee_km":495.46747728601,"apogee_km":499.35078574109,"semimajor_km":6875.5461315136,"source":"CELESTRAK","updated_at":"2026-09-23T09:00:19.336282Z"}}}